Louisville, KY

1:02 AM EST on January 18, 2017 (GMT -0500)
Louisville International-Standiford

Weather History for KSDF - October, 2012

Change the Weather History Date:

Tuesday, October 30, 2012

  Actual Average Record
Temperature  
Mean Temperature 44 °F 55 °F  
Max Temperature 46 °F 65 °F 84 °F (1950)
Min Temperature 41 °F 45 °F 26 °F (1895)
Degree Days  
Heating Degree Days 21 10  
Month to date heating degree days 239 201  
Since 1 July heating degree days 271 231  
Cooling Degree Days 0 0  
Month to date cooling degree days 27 44  
Year to date cooling degree days 1948 1611  
Moisture  
Dew Point 33 °F    
Average Humidity 65    
Maximum Humidity 76    
Minimum Humidity 53    
Precipitation  
Precipitation T in 0.11 in 1.49 in (2013)
Month to date precipitation 2.39 3.12  
Year to date precipitation 37.79 37.39  
Snow  
Snow 0.00 in 0.00 in 2.50 in (1925)
Month to date snowfall 0.0 0.1  
Since 1 July snowfall 0.0 0.1  
Since 1 September snowfall 0.0 0.1  
Snow Depth 0.00 in    
Sea Level Pressure  
Sea Level Pressure 29.73 in    
Wind  
Wind Speed 16 mph (WNW)    
Max Wind Speed 24 mph    
Max Gust Speed 32 mph    
Visibility 10 miles    
Events Rain    
T = Trace of Precipitation, MM = Missing Value Source: NWS Daily Summary

Daily Weather History Graph

Daily Weather History Graph

Search for Another Location

Airport or City:

Trip Planner

Search our weather history database for the weather conditions in past years. The results will help you decide how hot, cold, wet, or windy it might be!

Date:

Astronomy

Oct. 30, 2012 Rise Set
Actual Time 8:07 AM EDT 6:45 PM EDT
Civil Twilight 7:40 AM EDT 7:12 PM EDT
Nautical Twilight 7:08 AM EDT 7:43 PM EDT
Astronomical Twilight 6:38 AM EDT 8:14 PM EDT
Moon 7:15 PM EDT (10/30) 8:52 AM EDT (10/30)
Length of Visible Light 11h 32m
Length of Day
10h 37m
Full, 99% of the Moon is Illuminated
Oct 30
Full
Nov 6
Last Quarter
Nov 13
New
Nov 20
First Quarter
Nov 28
Full

Hourly Weather History & Observations

Time (EDT) Temp. Windchill Dew Point Humidity Pressure Visibility Wind Dir Wind Speed Gust Speed Precip Events Conditions
12:56 AM 46.0 °F 39.3 °F 30.9 °F 56% 29.83 in 10.0 mi NW 16.1 mph 24.2 mph N/A   Overcast
1:56 AM 45.0 °F 37.4 °F 30.9 °F 58% 29.80 in 10.0 mi NW 18.4 mph 25.3 mph N/A   Overcast
2:56 AM 45.0 °F 37.6 °F 30.9 °F 58% 29.77 in 10.0 mi NW 17.3 mph 28.8 mph N/A   Overcast
3:56 AM 45.0 °F 36.4 °F 30.9 °F 58% 29.74 in 10.0 mi NW 23.0 mph 28.8 mph N/A   Overcast
4:56 AM 44.1 °F 35.9 °F 30.9 °F 60% 29.72 in 10.0 mi NW 19.6 mph 27.6 mph N/A   Overcast
5:56 AM 44.6 °F 36.9 °F 30.2 °F 57% 29.71 in 10.0 mi NW 18.4 mph 28.8 mph N/A   Overcast
6:56 AM 43.0 °F 34.2 °F 30.0 °F 60% 29.70 in 10.0 mi WNW 20.7 mph 26.5 mph N/A   Overcast
7:56 AM 43.0 °F 35.1 °F 30.0 °F 60% 29.68 in 10.0 mi WNW 17.3 mph 26.5 mph N/A   Overcast
8:56 AM 42.1 °F 34.2 °F 30.9 °F 65% 29.69 in 10.0 mi NW 16.1 mph 24.2 mph 0.00 in Rain Light Rain
9:56 AM 43.0 °F 35.1 °F 30.9 °F 62% 29.69 in 10.0 mi WNW 17.3 mph 24.2 mph 0.00 in   Overcast
10:56 AM 43.0 °F 35.7 °F 32.0 °F 65% 29.69 in 10.0 mi WNW 15.0 mph 23.0 mph 0.00 in   Overcast
11:27 AM 42.8 °F 34.8 °F 32.0 °F 66% 29.69 in 10.0 mi WNW 17.3 mph 27.6 mph N/A   Overcast
11:56 AM 41.0 °F 33.1 °F 34.0 °F 76% 29.70 in 9.0 mi WNW 15.0 mph 24.2 mph 0.00 in Rain Light Rain
12:56 PM 43.0 °F 35.1 °F 34.0 °F 71% 29.70 in 10.0 mi WNW 17.3 mph 24.2 mph 0.00 in   Overcast
1:56 PM 43.0 °F 35.1 °F 35.1 °F 74% 29.69 in 10.0 mi WNW 17.3 mph 28.8 mph 0.00 in Rain Light Rain
2:56 PM 43.0 °F 34.8 °F 35.1 °F 74% 29.69 in 10.0 mi WNW 18.4 mph 29.9 mph 0.00 in Rain Light Rain
3:34 PM 42.8 °F 35.1 °F 35.6 °F 76% 29.68 in 10.0 mi WNW 16.1 mph 25.3 mph 0.00 in Rain Light Rain
3:56 PM 43.0 °F 35.1 °F 36.0 °F 76% 29.69 in 10.0 mi WNW 17.3 mph 32.2 mph 0.00 in Rain Light Rain
4:56 PM 44.1 °F 36.8 °F 35.1 °F 71% 29.70 in 10.0 mi West 16.1 mph 20.7 mph 0.00 in   Overcast
5:56 PM 43.0 °F 35.7 °F 36.0 °F 76% 29.72 in 10.0 mi West 15.0 mph - 0.00 in   Overcast
6:56 PM 44.1 °F 36.5 °F 34.0 °F 68% 29.74 in 10.0 mi West 17.3 mph 23.0 mph 0.00 in   Light Drizzle
7:56 PM 43.0 °F 36.0 °F 36.0 °F 76% 29.76 in 10.0 mi WNW 13.8 mph 24.2 mph 0.00 in   Light Drizzle
8:56 PM 43.0 °F 37.2 °F 36.0 °F 76% 29.77 in 10.0 mi WNW 10.4 mph - 0.00 in   Light Drizzle
9:56 PM 43.0 °F 35.1 °F 35.1 °F 74% 29.78 in 10.0 mi WNW 17.3 mph 23.0 mph 0.00 in Rain Light Rain
10:56 PM 45.0 °F 40.1 °F 34.0 °F 65% 29.77 in 10.0 mi WNW 9.2 mph - 0.00 in   Overcast
11:56 PM 44.6 °F 38.8 °F 33.8 °F 66% 29.76 in 10.0 mi WNW 11.5 mph - N/A   Overcast